﻿測定場所 (Monitoring sites),日付 (Measurement date),時間 (Measurement time),線量率 最大値 (max) μGy/h,線量率 最小値 (min) μGy/h,線量率 平均値 (average) μGy/h,
調布 (Chofu),2021-07-18,23:01～24:00,0.0289,0.0252,0.0265,
調布 (Chofu),2021-07-18,22:01～23:00,0.0291,0.0249,0.0269,
調布 (Chofu),2021-07-18,21:01～22:00,0.0286,0.0248,0.0267,
調布 (Chofu),2021-07-18,20:01～21:00,0.0282,0.0251,0.0265,
調布 (Chofu),2021-07-18,19:01～20:00,0.0278,0.0249,0.0266,
調布 (Chofu),2021-07-18,18:01～19:00,0.0285,0.0248,0.0265,
調布 (Chofu),2021-07-18,17:01～18:00,0.0290,0.0246,0.0266,
調布 (Chofu),2021-07-18,16:01～17:00,0.0281,0.0248,0.0262,
調布 (Chofu),2021-07-18,15:01～16:00,0.0281,0.0235,0.0264,
調布 (Chofu),2021-07-18,14:01～15:00,0.0285,0.0246,0.0266,
調布 (Chofu),2021-07-18,13:01～14:00,0.0290,0.0244,0.0265,
調布 (Chofu),2021-07-18,12:01～13:00,0.0287,0.0246,0.0265,
調布 (Chofu),2021-07-18,11:01～12:00,0.0290,0.0245,0.0263,
調布 (Chofu),2021-07-18,10:01～11:00,0.0281,0.0241,0.0264,
調布 (Chofu),2021-07-18,09:01～10:00,0.0286,0.0247,0.0265,
調布 (Chofu),2021-07-18,08:01～09:00,0.0295,0.0256,0.0275,
調布 (Chofu),2021-07-18,07:01～08:00,0.0312,0.0258,0.0278,
調布 (Chofu),2021-07-18,06:01～07:00,0.0301,0.0267,0.0284,
調布 (Chofu),2021-07-18,05:01～06:00,0.0313,0.0259,0.0283,
調布 (Chofu),2021-07-18,04:01～05:00,0.0284,0.0251,0.0268,
調布 (Chofu),2021-07-18,03:01～04:00,0.0283,0.0246,0.0265,
調布 (Chofu),2021-07-18,02:01～03:00,0.0294,0.0249,0.0264,
調布 (Chofu),2021-07-18,01:01～02:00,0.0284,0.0243,0.0265,
調布 (Chofu),2021-07-18,00:01～01:00,0.0279,0.0234,0.0261,
調布 (Chofu),2021-07-17,23:01～24:00,0.0278,0.0246,0.0262,
調布 (Chofu),2021-07-17,22:01～23:00,0.0289,0.0245,0.0264,
調布 (Chofu),2021-07-17,21:01～22:00,0.0288,0.0245,0.0262,
調布 (Chofu),2021-07-17,20:01～21:00,0.0281,0.0243,0.0263,
調布 (Chofu),2021-07-17,19:01～20:00,0.0284,0.0237,0.0264,
調布 (Chofu),2021-07-17,18:01～19:00,0.0281,0.0240,0.0262,
調布 (Chofu),2021-07-17,17:01～18:00,0.0282,0.0240,0.0265,
調布 (Chofu),2021-07-17,16:01～17:00,0.0294,0.0238,0.0265,
調布 (Chofu),2021-07-17,15:01～16:00,0.0297,0.0242,0.0261,
調布 (Chofu),2021-07-17,14:01～15:00,0.0282,0.0242,0.0264,
調布 (Chofu),2021-07-17,13:01～14:00,0.0287,0.0242,0.0264,
調布 (Chofu),2021-07-17,12:01～13:00,0.0277,0.0241,0.0261,
調布 (Chofu),2021-07-17,11:01～12:00,0.0285,0.0239,0.0262,
調布 (Chofu),2021-07-17,10:01～11:00,0.0287,0.0243,0.0266,
調布 (Chofu),2021-07-17,09:01～10:00,0.0288,0.0247,0.0267,
調布 (Chofu),2021-07-17,08:01～09:00,0.0287,0.0254,0.0272,
調布 (Chofu),2021-07-17,07:01～08:00,0.0303,0.0263,0.0278,
調布 (Chofu),2021-07-17,06:01～07:00,0.0302,0.0271,0.0287,
調布 (Chofu),2021-07-17,05:01～06:00,0.0299,0.0254,0.0279,
調布 (Chofu),2021-07-17,04:01～05:00,0.0287,0.0246,0.0269,
調布 (Chofu),2021-07-17,03:01～04:00,0.0281,0.0236,0.0263,
調布 (Chofu),2021-07-17,02:01～03:00,0.0277,0.0242,0.0260,
調布 (Chofu),2021-07-17,01:01～02:00,0.0281,0.0236,0.0264,
調布 (Chofu),2021-07-17,00:01～01:00,0.0291,0.0245,0.0263,
調布 (Chofu),2021-07-16,23:01～24:00,0.0281,0.0242,0.0260,
調布 (Chofu),2021-07-16,22:01～23:00,0.0280,0.0237,0.0261,
調布 (Chofu),2021-07-16,21:01～22:00,0.0283,0.0239,0.0261,
調布 (Chofu),2021-07-16,20:01～21:00,0.0281,0.0245,0.0260,
調布 (Chofu),2021-07-16,19:01～20:00,0.0279,0.0235,0.0260,
調布 (Chofu),2021-07-16,18:01～19:00,0.0284,0.0243,0.0261,
調布 (Chofu),2021-07-16,17:01～18:00,0.0278,0.0243,0.0260,
調布 (Chofu),2021-07-16,16:01～17:00,0.0282,0.0243,0.0262,
調布 (Chofu),2021-07-16,15:01～16:00,0.0277,0.0244,0.0261,
調布 (Chofu),2021-07-16,14:01～15:00,0.0284,0.0237,0.0260,
調布 (Chofu),2021-07-16,13:01～14:00,0.0280,0.0239,0.0261,
調布 (Chofu),2021-07-16,12:01～13:00,0.0283,0.0238,0.0258,
調布 (Chofu),2021-07-16,11:01～12:00,0.0275,0.0241,0.0258,
調布 (Chofu),2021-07-16,10:01～11:00,0.0291,0.0240,0.0265,
調布 (Chofu),2021-07-16,09:01～10:00,0.0286,0.0241,0.0265,
調布 (Chofu),2021-07-16,08:01～09:00,0.0288,0.0247,0.0267,
調布 (Chofu),2021-07-16,07:01～08:00,0.0288,0.0248,0.0271,
調布 (Chofu),2021-07-16,06:01～07:00,0.0301,0.0262,0.0280,
調布 (Chofu),2021-07-16,05:01～06:00,0.0300,0.0262,0.0282,
調布 (Chofu),2021-07-16,04:01～05:00,0.0299,0.0246,0.0274,
調布 (Chofu),2021-07-16,03:01～04:00,0.0281,0.0246,0.0264,
調布 (Chofu),2021-07-16,02:01～03:00,0.0276,0.0241,0.0263,
調布 (Chofu),2021-07-16,01:01～02:00,0.0278,0.0242,0.0261,
調布 (Chofu),2021-07-16,00:01～01:00,0.0285,0.0241,0.0258,
調布 (Chofu),2021-07-15,23:01～24:00,0.0282,0.0243,0.0260,
調布 (Chofu),2021-07-15,22:01～23:00,0.0272,0.0241,0.0260,
調布 (Chofu),2021-07-15,21:01～22:00,0.0279,0.0240,0.0257,
調布 (Chofu),2021-07-15,20:01～21:00,0.0272,0.0240,0.0256,
調布 (Chofu),2021-07-15,19:01～20:00,0.0278,0.0241,0.0257,
調布 (Chofu),2021-07-15,18:01～19:00,0.0270,0.0241,0.0254,
調布 (Chofu),2021-07-15,17:01～18:00,0.0278,0.0236,0.0256,
調布 (Chofu),2021-07-15,16:01～17:00,0.0276,0.0235,0.0256,
調布 (Chofu),2021-07-15,15:01～16:00,0.0274,0.0236,0.0257,
調布 (Chofu),2021-07-15,14:01～15:00,0.0287,0.0239,0.0262,
調布 (Chofu),2021-07-15,13:01～14:00,0.0295,0.0252,0.0269,
調布 (Chofu),2021-07-15,12:01～13:00,0.0329,0.0263,0.0294,
調布 (Chofu),2021-07-15,11:01～12:00,0.0339,0.0245,0.0294,
調布 (Chofu),2021-07-15,10:01～11:00,0.0281,0.0242,0.0260,
調布 (Chofu),2021-07-15,09:01～10:00,0.0288,0.0241,0.0258,
調布 (Chofu),2021-07-15,08:01～09:00,0.0274,0.0242,0.0261,
調布 (Chofu),2021-07-15,07:01～08:00,0.0283,0.0241,0.0261,
調布 (Chofu),2021-07-15,06:01～07:00,0.0283,0.0246,0.0266,
調布 (Chofu),2021-07-15,05:01～06:00,0.0295,0.0261,0.0279,
調布 (Chofu),2021-07-15,04:01～05:00,0.0313,0.0248,0.0281,
調布 (Chofu),2021-07-15,03:01～04:00,0.0280,0.0249,0.0264,
調布 (Chofu),2021-07-15,02:01～03:00,0.0313,0.0262,0.0286,
調布 (Chofu),2021-07-15,01:01～02:00,0.0397,0.0284,0.0344,
調布 (Chofu),2021-07-15,00:01～01:00,0.0406,0.0265,0.0338,
調布 (Chofu),2021-07-14,23:01～24:00,0.0285,0.0242,0.0267,
調布 (Chofu),2021-07-14,22:01～23:00,0.0296,0.0254,0.0274,
調布 (Chofu),2021-07-14,21:01～22:00,0.0293,0.0253,0.0272,
調布 (Chofu),2021-07-14,20:01～21:00,0.0288,0.0244,0.0265,
調布 (Chofu),2021-07-14,19:01～20:00,0.0291,0.0250,0.0268,
調布 (Chofu),2021-07-14,18:01～19:00,0.0299,0.0249,0.0267,
調布 (Chofu),2021-07-14,17:01～18:00,0.0282,0.0247,0.0268,
調布 (Chofu),2021-07-14,16:01～17:00,0.0285,0.0241,0.0266,
調布 (Chofu),2021-07-14,15:01～16:00,0.0289,0.0256,0.0275,
調布 (Chofu),2021-07-14,14:01～15:00,0.0308,0.0268,0.0287,
調布 (Chofu),2021-07-14,13:01～14:00,0.0287,0.0252,0.0269,
調布 (Chofu),2021-07-14,12:01～13:00,0.0287,0.0251,0.0269,
調布 (Chofu),2021-07-14,11:01～12:00,0.0283,0.0247,0.0267,
調布 (Chofu),2021-07-14,10:01～11:00,0.0286,0.0249,0.0268,
調布 (Chofu),2021-07-14,09:01～10:00,0.0290,0.0252,0.0266,
調布 (Chofu),2021-07-14,08:01～09:00,0.0282,0.0246,0.0267,
調布 (Chofu),2021-07-14,07:01～08:00,0.0278,0.0249,0.0265,
調布 (Chofu),2021-07-14,06:01～07:00,0.0285,0.0245,0.0264,
調布 (Chofu),2021-07-14,05:01～06:00,0.0282,0.0248,0.0266,
調布 (Chofu),2021-07-14,04:01～05:00,0.0282,0.0249,0.0266,
調布 (Chofu),2021-07-14,03:01～04:00,0.0285,0.0243,0.0266,
調布 (Chofu),2021-07-14,02:01～03:00,0.0291,0.0239,0.0265,
調布 (Chofu),2021-07-14,01:01～02:00,0.0282,0.0252,0.0266,
調布 (Chofu),2021-07-14,00:01～01:00,0.0282,0.0246,0.0265,
調布 (Chofu),2021-07-13,23:01～24:00,0.0284,0.0254,0.0268,
調布 (Chofu),2021-07-13,22:01～23:00,0.0288,0.0248,0.0266,
調布 (Chofu),2021-07-13,21:01～22:00,0.0283,0.0245,0.0265,
調布 (Chofu),2021-07-13,20:01～21:00,0.0291,0.0250,0.0268,
調布 (Chofu),2021-07-13,19:01～20:00,0.0294,0.0257,0.0273,
調布 (Chofu),2021-07-13,18:01～19:00,0.0299,0.0255,0.0276,
調布 (Chofu),2021-07-13,17:01～18:00,0.0290,0.0248,0.0269,
調布 (Chofu),2021-07-13,16:01～17:00,0.0299,0.0258,0.0271,
調布 (Chofu),2021-07-13,15:01～16:00,0.0289,0.0250,0.0272,
調布 (Chofu),2021-07-13,14:01～15:00,0.0292,0.0247,0.0270,
調布 (Chofu),2021-07-13,13:01～14:00,0.0289,0.0254,0.0271,
調布 (Chofu),2021-07-13,12:01～13:00,0.0287,0.0248,0.0269,
調布 (Chofu),2021-07-13,11:01～12:00,0.0292,0.0253,0.0277,
調布 (Chofu),2021-07-13,10:01～11:00,0.0296,0.0255,0.0279,
調布 (Chofu),2021-07-13,09:01～10:00,0.0309,0.0274,0.0290,
調布 (Chofu),2021-07-13,08:01～09:00,0.0299,0.0263,0.0278,
調布 (Chofu),2021-07-13,07:01～08:00,0.0290,0.0255,0.0274,
調布 (Chofu),2021-07-13,06:01～07:00,0.0299,0.0259,0.0275,
調布 (Chofu),2021-07-13,05:01～06:00,0.0291,0.0254,0.0273,
調布 (Chofu),2021-07-13,04:01～05:00,0.0295,0.0258,0.0274,
調布 (Chofu),2021-07-13,03:01～04:00,0.0297,0.0251,0.0274,
調布 (Chofu),2021-07-13,02:01～03:00,0.0290,0.0255,0.0274,
調布 (Chofu),2021-07-13,01:01～02:00,0.0289,0.0256,0.0269,
調布 (Chofu),2021-07-13,00:01～01:00,0.0289,0.0246,0.0270,
調布 (Chofu),2021-07-12,23:01～24:00,0.0285,0.0252,0.0271,
調布 (Chofu),2021-07-12,22:01～23:00,0.0284,0.0247,0.0267,
調布 (Chofu),2021-07-12,21:01～22:00,0.0295,0.0253,0.0271,
調布 (Chofu),2021-07-12,20:01～21:00,0.0300,0.0264,0.0278,
調布 (Chofu),2021-07-12,19:01～20:00,0.0301,0.0265,0.0286,
調布 (Chofu),2021-07-12,18:01～19:00,0.0333,0.0270,0.0302,
調布 (Chofu),2021-07-12,17:01～18:00,0.0423,0.0323,0.0365,
調布 (Chofu),2021-07-12,16:01～17:00,0.0457,0.0345,0.0398,
調布 (Chofu),2021-07-12,15:01～16:00,0.0438,0.0293,0.0373,
調布 (Chofu),2021-07-12,14:01～15:00,0.0299,0.0252,0.0272,
調布 (Chofu),2021-07-12,13:01～14:00,0.0290,0.0250,0.0267,
調布 (Chofu),2021-07-12,12:01～13:00,0.0284,0.0253,0.0268,
調布 (Chofu),2021-07-12,11:01～12:00,0.0292,0.0252,0.0269,
調布 (Chofu),2021-07-12,10:01～11:00,0.0295,0.0246,0.0273,
調布 (Chofu),2021-07-12,09:01～10:00,0.0295,0.0248,0.0268,
調布 (Chofu),2021-07-12,08:01～09:00,0.0294,0.0252,0.0271,
調布 (Chofu),2021-07-12,07:01～08:00,0.0288,0.0247,0.0272,
調布 (Chofu),2021-07-12,06:01～07:00,0.0293,0.0252,0.0273,
調布 (Chofu),2021-07-12,05:01～06:00,0.0300,0.0258,0.0275,
調布 (Chofu),2021-07-12,04:01～05:00,0.0291,0.0253,0.0274,
調布 (Chofu),2021-07-12,03:01～04:00,0.0294,0.0252,0.0274,
調布 (Chofu),2021-07-12,02:01～03:00,0.0296,0.0251,0.0270,
調布 (Chofu),2021-07-12,01:01～02:00,0.0281,0.0245,0.0264,
調布 (Chofu),2021-07-12,00:01～01:00,0.0284,0.0243,0.0267,
